This is the latest recevied weather packets stored in our database for station/object KD8OZS. If no packets are shown the sender has not sent any weather packets the latest 10 day(s).
| Time | Temp. | Humidity | Pressure | Rain* | Wind** | Luminosity | Snow |
|---|---|---|---|---|---|---|---|
| 1778096272 | 12.78° C | 58% | 1004.3 hPa | 0 mm | - | 154 W/m² | - |
| 1778095969 | 12.78° C | 56% | 1004.5 hPa | 0 mm | - | 141 W/m² | - |
| 1778095665 | 13.33° C | 54% | 1004.5 hPa | 0 mm | - | 133 W/m² | - |
| 1778095362 | 13.89° C | 55% | 1004.2 hPa | 0 mm | - | 237 W/m² | - |
| 1778095059 | 13.89° C | 57% | 1004.5 hPa | 0 mm | - | 269 W/m² | - |
| 1778094755 | 13.33° C | 58% | 1004.3 hPa | 0 mm | - | 262 W/m² | - |
| 1778094452 | 13.33° C | 58% | 1004.3 hPa | 0 mm | - | 228 W/m² | - |
| 1778094149 | 12.78° C | 59% | 1004.6 hPa | 0 mm | - | 155 W/m² | - |
| 1778093846 | 12.78° C | 57% | 1004.7 hPa | 0 mm | - | 134 W/m² | - |
| 1778093542 | 13.33° C | 57% | 1004.3 hPa | 0 mm | - | 126 W/m² | - |
| 1778093240 | 13.33° C | 54% | 1004.8 hPa | 0 mm | - | 161 W/m² | - |
| 1778092937 | 13.89° C | 53% | 1004.8 hPa | 0 mm | - | 203 W/m² | - |
| 1778092634 | 13.89° C | 58% | 1004.5 hPa | 0 mm | - | 231 W/m² | - |
| 1778092329 | 13.89° C | 54% | 1004.5 hPa | 0 mm | - | 298 W/m² | - |
| 1778092027 | 14.44° C | 57% | 1004.3 hPa | 0 mm | - | 337 W/m² | - |
| 1778091724 | 14.44° C | 59% | 1004.2 hPa | 0 mm | - | 340 W/m² | - |
| 1778091421 | 13.33° C | 61% | 1004.5 hPa | 0 mm | - | 391 W/m² | - |
| 1778091119 | 13.33° C | 59% | 1004.3 hPa | 0 mm | - | 596 W/m² | - |
| 1778090816 | 13.33° C | 56% | 1004.7 hPa | 0 mm | - | 216 W/m² | - |
| 1778090511 | 13.33° C | 56% | 1004.5 hPa | 0 mm | - | 200 W/m² | - |
| 1778090208 | 13.89° C | 57% | 1004.7 hPa | 0 mm | - | 196 W/m² | - |
| 1778089905 | 13.33° C | 56% | 1004.9 hPa | 0 mm | - | 210 W/m² | - |
| 1778089598 | 13.89° C | 58% | 1004.2 hPa | 0 mm | - | 228 W/m² | - |
| 1778089294 | 14.44° C | 58% | 1004.2 hPa | 0 mm | - | 173 W/m² | - |
| 1778088992 | 15° C | 51% | 1004.3 hPa | 0 mm | - | 587 W/m² | - |
* Rain latest hour (hover to see other rain measurements)
** Current wind speed in m/s (hover to see current wind gust speed)